Skip to main content

Coruche

ID 1210744 · 38.9410, -8.5107 map

Latest reading · 2026-05-09 19:00 (Europe/Lisbon)

Temperature
16.2 °C
Humidity
Pressure
Precipitation
0.0 mm
Radiation
714 W/m²
Wind speed
13.0 km/h
Wind direction
SW · South-west

24-hour history

Time (Europe/Lisbon) Temp Humidity Pressure Rain Wind Dir
2026-05-09 19:00 16.2 °C 0.0 mm 13.0 km/h SW
2026-05-09 18:00 15.4 °C 0.8 mm 19.4 km/h W
2026-05-09 17:00 17.1 °C 0.0 mm 16.2 km/h W
2026-05-09 16:00 15.7 °C 1.2 mm 22.3 km/h SW
2026-05-09 15:00 19.5 °C 0.0 mm 34.2 km/h SW
2026-05-09 14:00 19.7 °C 0.0 mm 31.0 km/h SW
2026-05-09 13:00 18.1 °C 0.1 mm 31.0 km/h SW
2026-05-09 12:00 17.0 °C 0.3 mm 20.5 km/h W
2026-05-09 11:00 17.8 °C 0.0 mm 20.5 km/h SW
2026-05-09 10:00 16.0 °C 0.0 mm 16.6 km/h S
2026-05-09 09:00 14.1 °C 0.0 mm 11.9 km/h SE
2026-05-09 08:00 13.2 °C 1.1 mm 10.4 km/h SE
2026-05-09 07:00 13.7 °C 1.7 mm 13.3 km/h SE
2026-05-09 06:00 13.1 °C 0.0 mm 10.8 km/h SE
2026-05-09 05:00 13.1 °C 0.0 mm 2.5 km/h E
2026-05-09 04:00 12.6 °C 0.0 mm 6.1 km/h E
2026-05-09 03:00 12.6 °C 0.0 mm 9.4 km/h E
2026-05-09 02:00 12.8 °C 0.0 mm 6.5 km/h SE
2026-05-09 01:00 13.6 °C 0.0 mm 4.7 km/h SE
2026-05-09 00:00 14.2 °C 0.0 mm 15.8 km/h S
2026-05-08 23:00 13.9 °C 0.5 mm 14.8 km/h SE
2026-05-08 22:00 14.1 °C 1.5 mm 13.3 km/h S
2026-05-08 21:00 14.8 °C 0.3 mm 12.2 km/h S
2026-05-08 20:00 15.5 °C 0.9 mm 12.2 km/h SW